Location: Old Romney
(50.9833°N, 0.8833°E)
Time: 17:43:34
(UTC+00:00)

Daily predictions for brighter satellites

Satellite Brightness Start Highest point End
(mag) Time Altitude Azimuth Time Altitude Azimuth Time Altitude Azimuth
AQUARIUS 4.2 17:14:29 10° SSE 17:18:58 83° ENE 17:23:29 10° NNW
Cosmos 1607 4.5 17:13:23 10° S 17:19:03 41° ESE 17:24:46 10° NE
Meteor PRIRODA 3.5 17:16:33 10° SSE 17:20:03 61° ENE 17:23:35 10° N
Cosmos 1025 Rocket 3.0 17:17:07 10° S 17:21:23 87° E 17:25:42 10° N
YAOGAN 1 3.9 17:20:55 10° ESE 17:24:03 20° ENE 17:27:12 10° NNE
SL-4 R/B 2.0 17:21:08 10° SW 17:24:30 54° SSE 17:28:03 10° E
Cosmos 2322 Rocket 3.9 17:23:27 10° ESE 17:25:42 12° E 17:27:57 10° ENE
Cosmos 2227 Rocket 4.3 17:21:31 10° NW 17:26:33 33° WSW 17:31:32 10° SSW
COBE Rocket 3.9 17:22:14 10° SSE 17:27:00 86° WSW 17:31:43 10° NNW
Landsat 4 4.1 17:24:54 10° S 17:28:29 67° WSW 17:32:09 10° NNW
Cosmos 1975 Rocket 3.2 17:25:04 10° S 17:29:32 84° W 17:34:00 10° N
ATLAS CENTAUR R/B 2.2 17:27:09 10° SSW 17:31:36 42° ESE 17:35:55 10° NE
Cosmos 1892 4.3 17:29:28 10° ESE 17:31:41 15° E 17:33:57 10° NE
NOSS 2-1 (E) 3.9 17:27:37 10° NW 17:31:49 86° SW 17:37:40 10° SE
Cosmos 2369 Rocket 4.4 17:30:31 10° NNW 17:32:01 11° NNW 17:33:31 10° N
Cosmos 1703 3.1 17:29:14 10° S 17:33:00 68° E 17:36:50 10° NNE
Cosmos 1536 Rocket 4.2 17:29:40 10° SSE 17:33:32 33° E 17:37:25 10° NNE
Cosmos 407 Rocket 4.1 17:29:13 10° SSE 17:33:51 35° ESE 17:38:28 10° NE
Cosmos 1340 Rocket 3.4 17:32:08 10° SSE 17:35:37 33° E 17:39:10 10° NNE
SL-16 R/B 3.4 17:33:24 10° SSE 17:37:41 22° ESE 17:41:57 10° NE
H-2A R/B 4.4 17:35:36 10° SSW 17:40:05 29° W 17:44:41 10° NNW
ARGOS 4.3 17:38:32 10° S 17:43:42 49° W 17:48:56 10° NNW
Cosmos 1606 Rocket 4.4 17:40:40 10° N 17:44:24 27° ENE 17:48:06 10° SE
Lacrosse 5 3.7 17:44:47 10° SSE 17:47:39 15° ESE 17:49:51 12° E
Cosmos 2369 3.7 17:43:33 10° SSW 17:49:13 86° ESE 17:54:57 10° NNE
BlueWalker 3 2.0 17:45:42 10° WSW 17:49:34 77° SSE 17:52:39 16° ENE
Cosmos 1140 Rocket 3.6 17:45:50 10° S 17:50:52 55° ESE 17:55:56 10° NNE
Cosmos 1655 Rocket 4.0 17:44:34 10° N 17:50:53 77° ENE 17:57:07 10° SSE
Cosmos 1825 3.7 17:50:00 10° SE 17:52:18 16° E 17:52:39 16° E
Cosmos 1408 3.0 17:49:48 10° SSE 17:52:54 35° E 17:56:04 10° NNE
NOAA 6 4.3 17:47:53 10° S 17:53:02 75° WSW 17:58:13 10° NNW
Cosmos 1980 Rocket 2.2 17:47:36 10° SSW 17:53:16 89° WNW 17:59:01 10° NNE
Radarsat Rocket 4.3 17:48:38 10° SSE 17:54:39 81° WSW 18:01:22 10° NNW
ATLAS 5 CENTAUR R/B 3.0 17:52:06 10° W 17:55:25 26° NNW 17:59:13 10° NE
COSMO-SKYMED 1 2.7 17:51:10 10° NNE 17:55:26 51° E 17:59:40 10° S
SL-08 R/B 3.5 17:52:35 10° NNE 17:57:32 83° WNW 18:02:30 10° SSW
USA 281 4.1 17:52:25 10° NNE 17:58:38 47° NW 18:04:49 10° WSW
Cosmos 2228 2.9 17:54:38 10° N 17:58:51 60° ENE 18:03:01 10° SSE
Cosmos 1023 Rocket 4.4 17:54:06 10° SSW 17:59:12 67° ESE 18:04:18 10° NNE
Cosmos 1697 Rocket 3.6 17:54:38 10° SW 18:00:06 48° NW 18:05:35 10° NNE
Cosmos 2263 Rocket 3.1 18:01:29 10° NW 18:06:54 53° WSW 18:12:17 10° S
MOS 1-B 4.5 18:02:11 10° SE 18:07:46 52° ENE 18:13:23 10° N
USA 102 4.3 18:01:28 10° ESE 18:08:19 29° E 18:09:01 28° E
Cosmos 1943 Rocket 4.3 18:09:09 10° N 18:10:04 10° N 18:10:58 10° NNE
CZ-4 R/B 2.1 18:07:59 10° SE 18:11:40 32° ENE 18:15:19 10° N
Cosmos 1340 4.4 18:12:25 10° NNE 18:13:48 16° NE 18:13:48 16° NE
SJ-6B 4.4 18:16:30 18° NE 18:16:30 18° NE 18:18:17 10° NNE
Okean-O 4.4 18:17:08 15° NE 18:17:08 15° NE 18:18:39 10° NNE
PSLV R/B 3.6 18:13:24 10° SSE 18:17:00 59° ENE 18:20:39 10° N
Cosmos 2266 Rocket 4.5 18:10:49 10° NNW 18:17:05 65° W 18:23:11 10° S
Cosmos 1328 3.7 18:13:52 10° S 18:17:51 77° E 18:21:50 10° NNE
Cosmos 1726 Rocket 3.8 18:13:48 10° N 18:17:56 43° ENE 18:22:03 10° SE
Okean O Rocket 2.1 18:14:52 10° SE 18:18:53 37° ENE 18:22:57 10° N
Meteor 1-11 4.5 18:13:46 10° SSE 18:19:17 47° E 18:24:50 10° NNE
Lacrosse 5 rocket 1.6 18:17:17 10° NW 18:20:42 41° NNE 18:21:53 30° ENE
Cosmos 468 Rocket 4.0 18:16:04 10° NNW 18:21:12 56° ENE 18:26:15 10° SE
Cosmos 1184 Rocket 3.7 18:19:00 10° NNW 18:21:14 35° W 18:23:26 10° SSW
ISS -2.7 18:18:10 10° W 18:21:23 43° SSW 18:23:39 17° SE
Cosmos 724 4.3 18:15:42 10° SSW 18:21:34 68° SE 18:26:26 16° NE
RESURS DK-1 3.0 18:21:07 10° NNW 18:24:55 35° NE 18:25:55 30° E
Cosmos 1954 Rocket 4.3 18:24:42 10° S 18:29:40 45° ESE 18:32:56 20° NE
Cosmos 1553 Rocket 4.3 18:26:53 10° SSE 18:32:30 41° E 18:38:12 10° NNE
CZ-4C R/B 3.3 18:29:33 10° NNE 18:33:33 78° WNW 18:37:16 10° SSW
IRIDIUM 104 4.5 18:28:57 10° N 18:34:01 48° E 18:39:03 10° SSE
COSMOS 2455 3.4 18:29:20 10° SW 18:35:15 57° NW 18:40:47 12° NNE
Cosmos 2251 Rocket 4.0 18:30:07 10° SW 18:35:24 61° WNW 18:40:46 10° NNE
CZ-4B R/B 3.0 18:32:26 10° SSE 18:37:46 77° ENE 18:43:13 10° NNW
Cosmos 1844 Rocket 2.6 18:33:14 10° NNW 18:38:49 70° ENE 18:43:47 13° SE
USA 290 3.6 18:36:03 10° SW 18:39:05 38° WNW 18:41:24 15° N
Cosmos 44 4.2 18:35:11 10° WSW 18:39:19 39° NW 18:42:26 17° NNE
IRIDIUM 114 4.3 18:38:01 10° N 18:43:11 56° E 18:48:19 10° SSE
SKYMED 2 4.2 18:39:17 10° N 18:43:34 56° WNW 18:47:49 10° SSW
Cosmos 1763 Rocket 3.5 18:38:24 10° NNW 18:43:38 85° WSW 18:48:46 10° SSE
Cosmos 1844 3.7 18:39:19 10° NNW 18:45:08 69° ENE 18:49:24 19° SE
Feng Yun 1-1 Rocket 4.2 18:41:04 10° SSE 18:46:34 63° ENE 18:51:59 10° N
USA 102 3.5 18:38:17 12° SE 18:38:17 12° SE 18:46:42 73° SSW
Cosmos 2058 Rocket 3.2 18:43:06 10° N 18:47:23 49° ENE 18:48:18 42° ESE
Cosmos 2278 4.0 18:44:50 10° SW 18:50:30 69° WNW 18:55:38 13° NNE
IRIDIUM 103 4.2 18:47:10 10° N 18:52:23 67° E 18:57:35 10° SSE
MINOTAUR 4 R/B 3.9 18:53:04 66° SSE 18:53:04 66° SSE 18:56:10 10° S
Cosmos 841 Rocket 3.6 18:48:08 10° NNW 18:53:18 52° ENE 18:54:41 41° ESE
ATLAS 2AS CENTAUR R/B 2.9 18:47:50 10° NW 18:54:52 71° SW 19:01:29 10° SSE
Cosmos 2333 Rocket 3.5 18:51:52 10° SSE 18:54:33 23° SE 18:54:33 23° SE
Cosmos 2360 Rocket 2.5 18:53:25 10° S 18:58:42 43° ESE 18:59:03 42° E
YAOGAN 1 3.1 18:55:30 10° S 18:59:45 58° W 19:04:02 10° NNW
Cosmos 2278 Rocket 3.5 18:57:24 10° NNW 19:01:28 23° NNE 19:01:28 23° NNE
SL-4 R/B 1.7 19:00:10 10° W 19:03:34 77° NW 19:03:34 77° NW
S3M 4.2 18:59:58 10° SSE 19:06:00 45° E 19:12:01 10° NNE
Cosmos 1607 4.5 19:00:09 10° WSW 19:06:10 55° NW 19:10:09 22° NNE
Cosmos 540 Rocket 3.4 19:01:24 10° NNW 19:06:36 84° WSW 19:10:11 20° SSE
Cosmos 1892 3.5 19:03:04 10° SSW 19:06:42 49° WNW 19:09:57 13° N
Cosmos 2322 Rocket 2.0 19:03:07 10° SSW 19:08:41 70° ESE 19:10:37 42° NE
ATLAS CENTAUR R/B 2.7 19:05:47 10° WSW 19:10:13 41° NW 19:12:01 28° N
IRIDIUM 106 4.2 19:05:27 10° N 19:10:42 88° W 19:15:56 10° S
Cosmos 676 Rocket 3.9 19:06:06 10° SSW 19:11:24 84° ESE 19:13:41 35° NNE
APEX 4.4 19:07:42 10° SW 19:13:48 73° NW 19:17:03 27° NNE
Cosmos 1461 4.2 19:12:44 10° SSW 19:15:09 31° S 19:15:09 31° S
Cosmos 2369 Rocket 4.4 19:18:04 10° N 19:18:56 10° NNE 19:19:21 10° NNE
SL-16 R/B 2.3 19:15:33 10° SW 19:21:13 73° WNW 19:24:12 29° NNE
Resurs 01 Rocket 4.1 19:28:45 12° N 19:28:45 12° N 19:29:06 10° N
In-Cosmos 22 Rocket 4.5 19:19:28 10° SSW 19:25:16 72° WNW 19:31:08 10° N
Meteor 1-27 4.4 19:19:33 10° NNW 19:25:22 72° W 19:31:04 10° S
Cosmos 1825 3.1 19:23:33 10° SSW 19:27:07 46° WNW 19:27:13 46° WNW
Gblst 52 Del rocket 4.0 19:22:49 10° WSW 19:28:20 70° SSE 19:28:33 70° SE
BlueWalker 3 2.9 19:24:29 10° W 19:27:27 46° WNW 19:27:27 46° WNW
Lacrosse 5 2.1 19:24:44 10° SW 19:29:05 56° S 19:29:05 56° S
CSL-04 Debris 4.0 19:29:18 51° SSE 19:30:43 88° ENE 19:36:10 10° NNW
Cosmos 1869 4.2 19:29:49 10° NNW 19:33:04 45° WNW 19:33:04 45° WNW
Cosmos 1892 Rocket 4.0 19:30:20 10° SSW 19:34:42 60° WNW 19:35:28 51° NNW
Cosmos 1980 Rocket 4.2 19:33:33 10° W 19:38:05 24° NW 19:42:16 11° NNE
CSL-04 Rocket 3.5 19:39:31 81° S 19:39:48 87° WSW 19:45:13 10° NNW
IGS 5A 4.3 19:41:22 48° WNW 19:41:22 48° WNW 19:44:54 10° NNW
ATLAS 5 CENTAUR R/B 3.7 19:38:18 10° NW 19:40:51 18° N 19:40:51 18° N
BREEZE-M DEB (TANK) 3.8 19:35:38 10° SW 19:45:22 47° S 19:45:22 47° S
CZ-4 R/B 3.3 19:42:53 10° SSW 19:46:33 30° W 19:50:11 10° NNW
Cosmos 1745 Rocket 4.2 19:44:29 10° NNW 19:50:45 71° W 19:55:06 20° S
Okean O Rocket 3.4 19:51:28 10° SSW 19:55:17 29° W 19:59:11 10° NNW
Cosmos 1943 Rocket 4.1 19:51:41 10° NNW 19:53:56 18° N 19:53:56 18° N
BREEZE-M DEB (TANK) 4.1 19:52:54 10° W 19:57:03 50° S 19:57:31 49° S
Lacrosse 5 rocket 3.7 19:56:08 10° WNW 19:57:18 19° WNW 19:57:18 19° WNW
RESURS DK-1 4.3 19:59:09 10° NW 20:01:46 28° W 20:01:46 28° W
Cosmos 1709 Rocket 4.1 20:03:32 10° NNW 20:08:56 67° NW 20:08:56 67° NW
Cosmos 2333 Rocket 4.2 20:34:57 10° SW 20:36:39 20° SW 20:36:39 20° SW
Cosmos 2360 Rocket 3.7 20:37:25 10° WSW 20:40:54 32° W 20:40:54 32° W
Cosmos 2278 Rocket 4.0 20:41:05 10° NNW 20:43:19 25° NNW 20:43:19 25° NNW
Cosmos 2322 Rocket 4.0 20:48:27 10° WSW 20:52:29 27° WNW 20:52:29 27° WNW
SL-16 R/B 4.4 21:02:08 10° W 21:06:07 21° NW 21:06:07 21° NW
